Location: Aschenbach
(47.0167°N, 15.5333°E)
Time: 03:54:30
(UTC+00:00)

Daily predictions for brighter satellites

Satellite Brightness Start Highest point End
(mag) Time Altitude Azimuth Time Altitude Azimuth Time Altitude Azimuth
SJ 16-02 3.5 00:03:06 16° ESE 00:03:31 16° E 00:06:12 10° ENE
SL-16 R/B 3.6 00:03:49 10° NNW 00:09:05 36° NE 00:14:19 10° ESE
Cosmos 1025 Rocket 3.2 00:08:31 10° NNW 00:12:13 63° NW 00:12:13 63° NW
Cosmos 1777 Rocket 3.9 00:12:23 67° SE 00:12:51 71° ESE 00:18:08 10° NNE
CZ-4 R/B 4.5 00:09:12 10° N 00:13:56 45° WNW 00:14:24 44° W
Cosmos 2195 Rocket 4.5 00:07:51 10° N 00:14:12 81° E 00:16:04 49° SSE
NOSS 0 Rocket 3.9 00:08:54 10° NNW 00:15:05 64° WSW 00:15:54 58° SSW
CZ-2D R/B 2.8 00:10:00 10° NNE 00:15:16 46° E 00:16:30 39° SE
SL-4 R/B 4.4 00:18:44 11° E 00:18:44 11° E 00:18:54 10° E
GEOS 3 Rocket 3.6 00:11:47 10° NE 00:17:14 81° SE 00:18:01 65° SSW
COSMOS 2428 3.5 00:12:15 10° NW 00:16:52 35° W 00:16:52 35° W
Meteor 1-29 4.2 00:14:19 10° N 00:16:43 40° N 00:16:43 40° N
Lacrosse 4 Rocket 3.2 00:17:22 22° WNW 00:18:12 24° NW 00:21:39 10° N
ADEOS II 4.0 00:14:20 10° NE 00:18:14 21° E 00:20:29 16° ESE
Cosmos 2360 Rocket 4.5 00:17:20 10° W 00:17:41 10° W 00:17:41 10° W
Cosmos 2026 Rocket 3.9 00:21:56 10° N 00:28:03 87° E 00:29:55 48° S
Cosmos 1536 Rocket 3.7 00:24:18 10° NNW 00:28:12 61° WNW 00:28:12 61° WNW
KORONAS-FOTON 4.2 00:25:59 10° N 00:29:28 59° NE 00:29:28 59° NE
Cosmos 2297 Rocket 2.2 00:30:52 57° S 00:31:58 74° ESE 00:37:37 10° NNE
Cosmos 1627 Rocket 4.4 00:26:26 10° N 00:32:37 83° W 00:34:24 49° S
Cosmos 1634 Rocket 3.9 00:31:20 50° S 00:33:09 87° E 00:39:25 10° N
Cosmos 2219 3.1 00:32:41 60° SSW 00:33:47 87° ESE 00:39:26 10° NNE
Cosmos 1980 3.7 00:28:36 10° NNW 00:34:12 61° WSW 00:34:49 57° SW
Cosmos 2333 Rocket 3.8 00:32:29 10° NW 00:35:43 20° W 00:35:43 20° W
MOZ.5/SAFIR/RUBIN 5/SL-8 3.7 00:38:18 65° WSW 00:38:30 66° W 00:43:15 10° NNW
Cosmos 1626 3.4 00:37:48 10° N 00:41:15 34° ENE 00:42:03 31° ESE
Cosmos 1766 3.7 00:41:49 52° ESE 00:41:55 52° E 00:45:43 10° NNE
Cosmos 2237 Rocket 2.2 00:38:28 10° NW 00:43:58 54° WSW 00:44:32 52° SW
Helios 1B rocket 4.2 00:50:10 10° NNW 00:53:13 21° WNW 00:53:28 21° WNW
Cosmos 1607 4.0 00:51:04 10° NW 00:57:33 82° NE 01:04:01 10° SE
CZ-4C R/B 3.7 01:00:00 45° NW 01:00:00 45° NW 01:02:43 10° NNW
Cosmos 1538 Rocket 4.3 00:54:51 10° NNW 00:59:45 45° WSW 00:59:58 44° WSW
ATLAS 3B R/B 4.4 00:55:50 10° W 01:01:16 26° NNW 01:06:48 10° NNE
SL-16 R/B 2.6 00:59:59 40° SSW 01:02:06 60° WSW 01:08:19 10° NNW
COBE Rocket 3.9 01:00:26 34° SSE 01:02:24 71° ENE 01:07:02 10° N
USA 215 3.5 00:57:48 10° ENE 01:04:12 54° SE 01:06:48 35° SSW
FALCON 9 DEB 3.9 01:09:15 10° WNW 01:12:40 52° NNE 01:16:05 10° E
Resurs 1-4 Rocket 2.2 01:07:32 10° N 01:12:45 61° WNW 01:14:25 41° SW
Cosmos 1805 3.4 01:13:32 53° W 01:13:42 53° WNW 01:17:32 10° N
Okean 1-7 Rocket 4.0 01:11:38 10° N 01:16:01 60° ENE 01:18:34 24° SSE
BREEZE-M R/B 4.2 01:19:06 24° ENE 01:19:06 24° ENE 01:20:24 10° E
Cosmos 2266 Rocket 4.2 01:11:53 10° N 01:18:16 70° E 01:23:42 14° SSE
SL-14 R/B 3.1 01:14:31 10° N 01:18:28 88° E 01:19:22 52° S
Okean 1 Rocket 3.5 01:18:56 41° W 01:19:32 43° WNW 01:23:44 10° N
Cosmos 2227 Rocket 2.5 01:19:04 35° WSW 01:21:16 58° WNW 01:26:53 10° NNE
Cosmos 1674 3.9 01:19:04 10° NNW 01:21:38 27° WNW 01:21:38 27° WNW
Cosmos 1655 Rocket 3.9 01:17:37 10° N 01:23:56 83° W 01:28:01 23° S
Cosmos 2112 Rocket 3.9 01:20:01 10° NNW 01:25:17 90° SSW 01:29:34 15° SSE
AQUA 3.9 01:22:27 10° N 01:27:10 62° WNW 01:28:45 39° SW
Cosmos 1733 3.4 01:27:32 49° WSW 01:27:59 52° WNW 01:31:45 10° N
CBERS-1 3.9 01:26:42 10° NNE 01:31:51 87° WNW 01:34:16 32° SSW
Cosmos 1937 Rocket 4.1 01:29:31 24° S 01:32:34 52° ESE 01:37:43 10° NNE
Cosmos 1758 3.8 01:34:06 27° SSE 01:36:05 56° E 01:40:02 10° NNE
NOSS 3-1 (C) 3.6 01:33:35 29° S 01:36:21 58° ESE 01:42:31 10° NE
USA 267 3.5 01:30:32 10° ESE 01:37:02 72° NNE 01:43:33 10° NW
Cosmos 1898 Rocket 3.5 01:35:45 30° SSW 01:38:24 78° ESE 01:43:38 10° NNE
ARIANE 5 R/B 3.1 01:33:43 10° NNE 01:38:51 54° E 01:42:41 18° S
SJ 16-02 1.6 01:40:06 37° SW 01:41:37 57° WNW 01:45:59 10° NNE
Cosmos 2082 3.8 01:39:45 31° SW 01:42:29 67° WNW 01:48:06 10° NNE
ATLAS 3B CENTAUR R/B 4.4 01:40:21 23° SSW 01:42:39 25° SSW 01:48:41 10° SE
Cosmos 1680 Rocket 3.6 01:37:34 10° NNW 01:42:42 56° WSW 01:45:53 22° S
Cosmos 1726 3.4 01:41:51 16° SSE 01:44:21 36° E 01:47:45 10° NNE
Cosmos 990 Rocket 3.9 01:44:13 30° SSW 01:46:53 84° WNW 01:52:06 10° NNE
IDEFIX/ARIANE 42P 3.5 01:43:16 10° NNE 01:48:13 43° E 01:53:09 10° S
Cosmos 1340 Rocket 2.8 01:48:30 30° S 01:50:25 84° E 01:54:24 10° NNE
SL-16 R/B 2.6 01:47:57 10° NW 01:53:17 42° WSW 01:56:45 20° SSW
Cosmos 1455 Rocket 3.1 01:51:23 31° SSW 01:53:24 65° W 01:57:51 10° N
Cosmos 1626 Rocket 3.8 01:49:25 10° N 01:53:45 68° E 01:58:02 10° SSE
SL-08 R/B 3.3 01:49:37 13° S 01:54:01 79° WSW 01:59:01 10° NNW
Cosmos 1461 3.0 01:52:47 32° SW 01:54:48 79° NW 01:59:23 10° NE
CZ-2D R/B 3.3 01:50:24 10° N 01:55:07 30° WNW 01:57:49 20° WSW
SL-4 R/B 1.7 01:54:33 39° WSW 01:55:07 44° SW 01:58:22 10° SE
IRS-1D 3.8 01:50:52 10° N 01:55:46 53° WNW 01:58:30 25° SW
Meteor 1-24 Rocket 4.1 01:51:07 10° NNW 01:56:12 41° W 01:58:47 25° SW
OPS 8737 4.2 01:55:16 38° SW 01:56:31 89° NW 01:59:32 10° NE
Cosmos 1953 3.1 01:55:00 14° SSE 01:58:12 50° E 02:02:09 10° NNE
ADEOS II 2.2 01:53:08 10° N 01:58:19 60° WNW 02:01:25 24° SW
CZ-2D R/B 3.9 01:57:12 10° NNE 02:01:13 56° E 02:04:19 16° S
Cosmos 1892 Rocket 4.3 01:57:15 10° NNW 02:01:21 36° W 02:03:00 26° SW
CZ-4B R/B 4.0 01:57:03 10° N 02:01:31 40° WNW 02:03:51 24° WSW
Meteor 2-10 4.3 02:03:54 13° S 02:08:45 77° E 02:14:24 10° NNE
Meteor 2-21 4.4 02:03:30 10° N 02:09:35 88° W 02:15:40 10° S
USA 229 DEB 3.7 02:05:21 20° SSW 02:10:03 83° SE 02:16:58 10° NE
USA 229 3.6 02:05:27 20° SSW 02:10:07 83° SE 02:17:01 10° NE
Cosmos 2263 Rocket 2.6 02:07:55 14° S 02:12:39 59° ESE 02:18:07 10° NNE
IRS-1C 4.2 02:07:22 10° N 02:12:39 63° WNW 02:16:32 18° SSW
Cosmos 1626 3.8 02:13:43 10° NW 02:16:14 17° W 02:16:34 17° W
Cosmos 2297 Rocket 3.8 02:12:41 12° W 02:16:37 23° NW 02:21:06 10° N
Cosmos 2098 Rocket 4.2 02:15:54 10° NNW 02:20:26 38° W 02:25:09 14° SSW
NOSS 2-3 (C) 3.9 02:17:45 19° SSW 02:20:48 67° SE 02:25:46 10° NE
NOSS 3-1 (A) 3.4 02:16:56 17° SSW 02:21:11 73° SE 02:27:33 10° NE
Meteor 1-28 Rocket 3.8 02:20:46 19° SSW 02:23:03 38° W 02:26:38 10° NNW
Cosmos 1703 4.0 02:20:45 10° N 02:24:41 55° ENE 02:28:33 10° SSE
H-2A R/B 1.9 02:25:45 10° SSE 02:29:53 88° ENE 02:34:00 10° NNW
Timation 1 Rocket 4.4 02:26:51 16° SW 02:31:43 70° WNW 02:37:42 10° NNE
Cosmos 1603 3.7 02:27:22 10° NNW 02:33:07 71° WSW 02:38:46 10° SSE
Cosmos 1470 4.0 02:32:06 17° WSW 02:34:16 27° WNW 02:37:40 10° NNW
Cosmos 1825 Rocket 4.3 02:30:06 10° N 02:34:23 54° ENE 02:38:36 10° SSE
SeaSat 1 3.1 02:34:00 10° NE 02:38:52 54° ESE 02:43:41 10° SSW
Spot 4 Rocket 4.2 02:39:22 10° N 02:44:28 60° WNW 02:49:31 10° SSW
USA 215 3.6 02:40:51 10° NE 02:47:17 61° NNW 02:53:42 10° WSW
FALCON 9 DEB 3.8 02:46:27 10° WNW 02:49:36 32° SW 02:52:44 10° SSE
Resurs 1-4 Rocket 4.3 02:50:19 10° NW 02:51:31 11° NW 02:52:42 10° WNW
Cosmos 1048 Rocket 4.0 02:48:31 10° NNW 02:53:41 88° ENE 02:58:51 10° SSE
Cosmos 1553 Rocket 4.0 02:48:40 10° S 02:54:44 88° W 03:00:53 10° N
Cosmos 1602 Rocket 4.3 02:54:58 10° NNW 02:58:54 33° W 03:02:48 10° SSW
Cosmos 1943 3.3 02:53:45 10° NW 02:59:12 53° WSW 03:04:38 10° S
Cosmos 1606 Rocket 3.7 02:58:07 10° S 03:02:35 82° E 03:07:06 10° N
Cosmos 1745 Rocket 4.1 02:57:35 10° N 03:03:56 90° ENE 03:10:10 10° S
Cosmos 2227 Rocket 4.3 03:03:39 10° WNW 03:06:37 14° NW 03:09:35 10° N
Meteor 2-8 Rocket 4.5 03:00:51 10° SSW 03:06:59 80° W 03:13:09 10° N
Cosmos 2084 4.3 03:08:23 10° SSW 03:12:37 48° ESE 03:16:54 10° NE
ERS-2 2.8 03:11:14 10° SSW 03:14:33 33° W 03:17:54 10° NNW
MSX 4.1 03:09:41 10° N 03:15:18 54° WNW 03:20:53 10° SW
